Location: Boise
(43.6140°N, 116.2030°W)
Time: 19:02:23
(UTC-07:00)

ISS - Visible Passes

Search period start: 18 December 2018 00:00
Search period end: 28 December 2018 00:00
Orbit: 401 x 408 km, 51.6° (Epoch: 19 December)

Date Brightness Start Highest point End Pass type
(mag) Time Alt. Az. Time Alt. Az. Time Alt. Az.
21 Dec -0.6 07:37:21 10° S 07:39:41 18° SE 07:42:01 10° E visible
23 Dec -2.3 07:28:24 10° SSW 07:31:30 40° SE 07:34:37 10° ENE visible
24 Dec -1.3 06:36:47 10° S 06:39:25 22° SE 06:42:02 10° E visible
25 Dec -0.7 05:45:56 10° SSE 05:47:23 12° SE 05:48:49 10° ESE visible
25 Dec -3.9 07:20:07 10° WSW 07:23:24 88° NW 07:26:42 10° ENE visible
26 Dec -3.0 06:29:36 25° SSW 06:31:11 50° SE 06:34:23 10° ENE visible
27 Dec -1.2 05:40:15 21° E 05:40:15 21° E 05:41:53 10° ENE visible
27 Dec -3.4 07:12:58 15° W 07:15:24 44° NNW 07:18:34 10° NE visible
